Location: Oshawa
(43.9000°N, 78.8670°W)
Time: 20:02:33
(UTC-04:00)

Amateur Radio Satellites - All Passes

Search period start: 30 June 2015 19:32
Search period end: 01 July 2015 19:32
Location: Oshawa, 43.9000°N, 78.8670°W

Satellite Date Start Highest point End Downlink Frequencies (MHz)
Time Altitude Azimuth
CUTE-I 30 Jun 19:32:35 19:37:27 34° 264° (W) 19:42:18 437.470
PRISM 30 Jun 19:41:01 19:44:35 27° 95° (E) 19:48:10 437.425
STRAND 1 30 Jun 19:54:46 19:59:38 41° 97° (E) 20:04:30 437.568
Cosmos 2504 30 Jun 19:59:28 20:04:45 20° 278° (W) 20:09:53 435.465 / 435.565
CINEMA 3 30 Jun 20:00:19 20:00:53 10° 62° (ENE) 20:01:40 145.822/145.860
Cubesat XI-IV 30 Jun 20:07:04 20:10:43 18° 271° (W) 20:14:10 437.490
HO-68 30 Jun 20:08:33 20:15:11 44° 65° (ENE) 20:21:54 435.675
CUSAT 1 30 Jun 20:12:48 20:15:39 66° 262° (W) 20:18:14 437.405
PCSat 30 Jun 20:13:02 20:14:25 11° 333° (NNW) 20:15:36 145.827
SEEDS 30 Jun 20:14:28 20:17:31 20° 66° (ENE) 20:20:39 437.485
DOVE 4 30 Jun 20:15:35 20:19:57 33° 70° (ENE) 20:24:09 437.250
SO-50 30 Jun 20:21:35 20:25:19 21° 323° (NW) 20:29:03 436.795
AAUSAT CUBESAT 2 30 Jun 20:36:22 20:39:38 23° 68° (ENE) 20:42:59 437.432
DANDE 30 Jun 20:46:28 20:49:25 35° 266° (W) 20:51:56 436.750
CUBESAT XI-V 30 Jun 20:46:36 20:50:20 23° 294° (WNW) 20:53:55 437.345
GOMX 1 30 Jun 20:47:01 20:52:19 83° 256° (WSW) 20:57:19 467.674
BRITE-PL 30 Jun 20:49:15 20:54:43 53° 261° (W) 20:59:53 437.365/2234.400
CUTE 1.7 + AOD 2 30 Jun 20:53:31 20:57:40 64° 75° (ENE) 21:01:51 437.475
CANX-2 30 Jun 20:56:08 21:00:20 76° 77° (ENE) 21:04:34 2200.000
COMPASS 1 30 Jun 20:57:51 21:01:48 46° 72° (ENE) 21:05:49 437.405
M-CUBED/EXP-1 PRIME 30 Jun 21:02:30 21:05:11 17° 98° (E) 21:08:06 437.505
CUBEBUG 2 30 Jun 21:14:32 21:18:11 27° 69° (ENE) 21:21:49 437.445
PRISM 30 Jun 21:16:21 21:19:59 28° 292° (WNW) 21:23:33 437.425
GONETS M04 30 Jun 21:16:53 21:25:39 80° 81° (E) 21:34:21
DELFI C3 30 Jun 21:21:58 21:25:06 23° 68° (ENE) 21:28:20 145.870
DX 1 30 Jun 21:26:42 21:27:12 10° 60° (ENE) 21:27:56 434.975-435.025
CINEMA 3 30 Jun 21:32:55 21:37:32 88° 72° (ENE) 21:41:57 145.822/145.860
STRAND 1 30 Jun 21:34:21 21:38:40 27° 295° (WNW) 21:42:53 437.568
ZACube-1 30 Jun 21:35:47 21:39:23 28° 69° (ENE) 21:43:00 437.345
SEEDS 30 Jun 21:49:12 21:53:05 37° 263° (W) 21:57:00 437.485
UKube-1 30 Jun 21:51:47 21:54:32 17° 64° (ENE) 21:57:25 .
DOVE 4 30 Jun 21:53:19 21:57:42 30° 265° (W) 22:01:51 437.250
Oscar 11 30 Jun 21:53:30 21:57:47 75° 75° (ENE) 22:02:06 145.826/435.025
HO-68 30 Jun 21:56:22 22:03:01 39° 263° (W) 22:09:36 435.675
AUBIESAT-1 30 Jun 22:06:00 22:10:04 71° 107° (ESE) 22:14:27 437.475
AAUSAT CUBESAT 2 30 Jun 22:11:24 22:15:06 31° 264° (W) 22:18:49 437.432
FUNcube-1 30 Jun 22:13:12 22:17:25 70° 75° (ENE) 22:21:35 145.935
UWE-3 30 Jun 22:13:59 22:18:18 87° 257° (WSW) 22:22:32 435.000/436.395/437.385
CUBEBUG 1 30 Jun 22:17:33 22:18:21 11° 60° (ENE) 22:19:22 437.445
Cosmos 2499 30 Jun 22:29:03 22:36:30 52° 75° (ENE) 22:44:32 435.465 / 435.565
HUMSAT D 30 Jun 22:29:31 22:33:26 46° 73° (ENE) 22:37:23 437.325/437.525
GOMX 1 30 Jun 22:30:26 22:31:11 10° 275° (W) 22:31:35 467.674
CUTE 1.7 + AOD 2 30 Jun 22:32:28 22:34:06 12° 273° (W) 22:35:30 437.475
VELOX 1 30 Jun 22:33:24 22:37:07 27° 67° (ENE) 22:40:54 145.980
COMPASS 1 30 Jun 22:35:09 22:37:47 16° 270° (W) 22:40:16 437.405
M-CUBED/EXP-1 PRIME 30 Jun 22:36:17 22:40:10 47° 292° (WNW) 22:44:22 437.505
CUBEBUG 2 30 Jun 22:51:04 22:54:51 28° 265° (W) 22:58:30 437.445
DELFI C3 30 Jun 22:56:32 23:00:05 29° 265° (W) 23:03:37 145.870
DX 1 30 Jun 22:58:25 23:02:48 87° 76° (ENE) 23:07:13 434.975-435.025
ANTELSAT 30 Jun 23:06:15 23:09:43 23° 94° (E) 23:13:18 437.575/2403.000
ZACube-1 30 Jun 23:12:07 23:15:44 26° 265° (W) 23:19:16 437.345
GONETS M04 30 Jun 23:15:12 23:21:36 22° 280° (W) 23:27:37
AISAT 30 Jun 23:18:11 23:22:40 79° 75° (ENE) 23:27:10 437.250
QB50P2 30 Jun 23:19:54 23:21:54 13° 89° (E) 23:24:06 145.880/145.840
TIGRISAT 30 Jun 23:20:17 23:24:08 31° 96° (E) 23:28:04 435.000
POPSAT HIP 1 30 Jun 23:21:43 23:23:45 14° 89° (E) 23:25:58 437.405
UKube-1 30 Jun 23:26:04 23:30:19 51° 260° (W) 23:34:35 .
50 SAT 30 Jun 23:27:12 23:31:02 73° 258° (WSW) 23:34:53 437.505
SPROUT 30 Jun 23:33:33 23:36:30 19° 65° (ENE) 23:39:33 437.525
Oscar 11 30 Jun 23:33:49 23:34:35 10° 274° (W) 23:35:06 145.826/435.025
ESTCUBE 1 30 Jun 23:34:50 23:39:21 73° 76° (ENE) 23:43:56 437.505/2401.250
AUBIESAT-1 30 Jun 23:42:24 23:44:27 13° 301° (WNW) 23:46:25 437.475
CUBEBUG 1 30 Jun 23:49:36 23:54:04 88° 77° (ENE) 23:58:32 437.445
FUNcube-1 30 Jun 23:53:14 23:54:17 11° 273° (W) 23:55:05 145.935
UNISAT 6 30 Jun 23:57:51 00:02:13 82° 103° (ESE) 00:06:39 437.425
QB50P1 30 Jun 23:59:51 00:03:43 35° 97° (E) 00:07:35 145.935-145.965
HUMSAT D 01 Jul 00:06:57 00:09:30 15° 270° (W) 00:11:53 437.325/437.525
VELOX 1 01 Jul 00:09:33 00:13:35 32° 264° (W) 00:17:35 145.980
NANOSAT C BR1 01 Jul 00:15:35 00:19:42 52° 100° (E) 00:23:49 145.865
Cosmos 2499 01 Jul 00:22:40 00:29:27 34° 273° (W) 00:36:29 435.465 / 435.565
POLYITAN 1 01 Jul 00:23:36 00:27:48 66° 101° (ESE) 00:31:58 437.675
DUCHIFAT 1 01 Jul 00:24:00 00:28:11 63° 101° (E) 00:32:19 145.980
TISAT 1 01 Jul 00:30:38 00:34:43 48° 72° (ENE) 00:38:50 437.305
BEESAT 01 Jul 00:38:06 00:40:03 13° 60° (ENE) 00:42:12 436.000
ANTELSAT 01 Jul 00:42:39 00:46:35 34° 290° (WNW) 00:50:33 437.575/2403.000
SWISSCUBE 01 Jul 00:51:37 00:54:48 18° 63° (ENE) 00:58:07 437.505
QB50P2 01 Jul 00:54:04 00:58:13 56° 287° (WNW) 01:02:20 145.880/145.840
ITUPSAT 1 01 Jul 00:54:56 00:58:03 18° 63° (ENE) 01:01:20 437.325
POPSAT HIP 1 01 Jul 00:55:54 01:00:02 55° 287° (WNW) 01:04:07 437.405
TIGRISAT 01 Jul 00:57:12 01:00:48 26° 292° (WNW) 01:04:23 435.000
AISAT 01 Jul 00:58:48 00:59:55 11° 273° (W) 01:00:43 437.250
BUGSAT 1 01 Jul 00:59:47 01:03:53 77° 285° (WNW) 01:07:54 437.445
SPROUT 01 Jul 01:08:08 01:12:17 45° 262° (W) 01:16:27 437.525
ESTCUBE 1 01 Jul 01:15:04 01:16:51 12° 273° (W) 01:18:22 437.505/2401.250
Cosmos 2491 01 Jul 01:16:07 01:20:12 14° 52° (NE) 01:24:48 435.465 / 435.565
PCSat 01 Jul 01:27:17 01:32:17 37° 49° (NE) 01:37:19 145.827
SO-50 01 Jul 01:30:03 01:33:33 19° 35° (NE) 01:37:07 436.795
QB50P1 01 Jul 01:36:07 01:39:24 22° 293° (WNW) 01:42:35 145.935-145.965
UNISAT 6 01 Jul 01:37:03 01:38:28 11° 298° (WNW) 01:39:40 437.425
NANOSAT C BR1 01 Jul 01:52:35 01:55:10 16° 296° (WNW) 01:57:36 145.865
POLYITAN 1 01 Jul 02:01:14 02:03:14 13° 297° (WNW) 02:05:02 437.675
DUCHIFAT 1 01 Jul 02:01:26 02:03:31 13° 297° (WNW) 02:05:26 145.980
TISAT 1 01 Jul 02:08:04 02:10:48 16° 270° (W) 02:13:21 437.305
BEESAT 01 Jul 02:12:29 02:17:15 86° 253° (WSW) 02:22:05 436.000
Oscar 19 01 Jul 02:19:56 02:24:44 40° 97° (E) 02:29:34 437.125/150
STARS 01 Jul 02:23:52 02:26:16 15° 63° (ENE) 02:28:49 437.465
ITAMSAT 1 01 Jul 02:24:29 02:26:29 12° 86° (E) 02:28:48 435.822/435.867
SWISSCUBE 01 Jul 02:27:33 02:32:15 57° 259° (W) 02:37:00 437.505
ITUPSAT 1 01 Jul 02:30:49 02:35:32 58° 259° (W) 02:40:18 437.325
KKS-1 01 Jul 02:55:50 03:00:06 48° 72° (ENE) 03:04:25 437.445
RS-15 01 Jul 02:58:44 03:08:48 47° 112° (ESE) 03:19:18 29.354- 29.394
SO-50 01 Jul 03:09:49 03:14:49 88° 232° (SW) 03:19:42 436.795
Cosmos 2491 01 Jul 03:10:37 03:19:20 66° 77° (ENE) 03:28:00 435.465 / 435.565
PCSat 01 Jul 03:10:45 03:15:44 37° 248° (WSW) 03:20:38 145.827
Gurwin Techsat 1B 01 Jul 03:31:53 03:37:07 56° 100° (E) 03:42:21 435.225
YUBILEINY 01 Jul 03:47:56 03:55:59 46° 89° (E) 04:04:09 435.215
HORYU 2 01 Jul 03:49:01 03:49:22 10° 86° (E) 03:50:02 437.375
AIST 1 01 Jul 03:55:43 04:00:08 87° 265° (W) 04:04:28
STARS 01 Jul 03:57:54 04:02:16 62° 259° (W) 04:06:38 437.465
Oscar 19 01 Jul 03:59:39 04:03:57 27° 295° (WNW) 04:08:10 437.125/150
ITAMSAT 1 01 Jul 04:01:31 04:06:47 85° 286° (WNW) 04:12:01 435.822/435.867
MOZHAYETS 4 01 Jul 04:20:48 04:25:00 37° 70° (ENE) 04:29:15
KKS-1 01 Jul 04:33:58 04:37:03 18° 269° (W) 04:39:59 437.445
JAS-2 01 Jul 04:37:39 04:43:57 62° 101° (E) 04:51:05 435.910
SO-50 01 Jul 04:52:44 04:54:41 12° 252° (WSW) 04:56:22 436.795
AO-7 01 Jul 05:00:57 05:09:04 52° 101° (E) 05:17:10 29.400- 29.500
Cosmos 2491 01 Jul 05:08:25 05:15:37 29° 277° (W) 05:22:32 435.465 / 435.565
RS-15 01 Jul 05:10:18 05:21:04 57° 316° (NW) 05:32:13 29.354- 29.394
Gurwin Techsat 1B 01 Jul 05:12:42 05:16:45 22° 297° (WNW) 05:20:39 435.225
HORYU 2 01 Jul 05:22:12 05:26:41 81° 285° (WNW) 05:31:09 437.375
STRAND 1 01 Jul 05:38:02 05:38:36 10° 56° (NE) 05:39:26 437.568
ITAMSAT 1 01 Jul 05:43:10 05:45:34 13° 302° (WNW) 05:47:45 435.822/435.867
YUBILEINY 01 Jul 05:44:48 05:52:57 42° 290° (WNW) 06:01:02 435.215
MOZHAYETS 4 01 Jul 05:58:40 06:02:21 23° 268° (W) 06:05:59
CUTE-I 01 Jul 06:10:32 06:11:56 11° 85° (E) 06:13:42 437.470
CUBESAT XI-V 01 Jul 06:13:09 06:17:39 47° 71° (ENE) 06:22:12 437.345
JAS-2 01 Jul 06:23:35 06:28:46 27° 296° (WNW) 06:34:18 435.910
PRISM 01 Jul 06:32:32 06:35:54 25° 67° (ENE) 06:39:21 437.425
Cubesat XI-IV 01 Jul 06:41:21 06:45:30 23° 92° (E) 06:49:46 437.490
Cosmos 2504 01 Jul 06:44:46 06:51:55 66° 94° (E) 06:59:01 435.465 / 435.565
AO-7 01 Jul 06:54:04 07:01:43 40° 300° (WNW) 07:09:15 29.400- 29.500
STRAND 1 01 Jul 07:11:51 07:16:57 69° 73° (ENE) 07:22:06 437.568
RS-15 01 Jul 07:27:27 07:36:39 28° 347° (NNW) 07:46:05 29.354- 29.394
O/OREOS (USA 219) 01 Jul 07:34:05 07:35:14 11° 99° (E) 07:36:38 437.305
CUSAT 1 01 Jul 07:38:16 07:42:13 17° 91° (E) 07:45:56 437.405
CUTE-I 01 Jul 07:47:32 07:52:57 86° 102° (ESE) 07:58:19 437.470
CUBESAT XI-V 01 Jul 07:51:55 07:55:23 19° 270° (W) 07:58:43 437.345
M-CUBED/EXP-1 PRIME 01 Jul 07:52:40 07:55:13 22° 63° (ENE) 07:57:54 437.505
PRISM 01 Jul 08:07:31 08:11:14 30° 264° (W) 08:14:57 437.425
BEESAT 3 01 Jul 08:08:12 08:11:20 22° 114° (ESE) 08:14:35 437.485
DANDE 01 Jul 08:13:16 08:19:22 28° 93° (E) 08:24:35 436.750
BEESAT 2 01 Jul 08:15:03 08:18:06 21° 113° (ESE) 08:21:16 435.950
Cubesat XI-IV 01 Jul 08:20:44 08:25:56 50° 290° (WNW) 08:31:05 437.490
GONETS M04 01 Jul 08:26:50 08:32:01 18° 78° (ENE) 08:37:41
Cosmos 2504 01 Jul 08:40:21 08:46:02 24° 296° (WNW) 08:51:31 435.465 / 435.565
CUTE 1.7 + AOD 2 01 Jul 08:40:30 08:40:42 10° 86° (E) 08:41:09 437.475
CANX-2 01 Jul 08:41:56 08:43:34 12° 88° (E) 08:45:26 2200.000
GOMX 1 01 Jul 08:48:39 08:52:00 23° 92° (E) 08:55:21 467.674
AO-7 01 Jul 08:50:54 08:52:21 10° 323° (NW) 08:53:22 29.400- 29.500
BRITE-PL 01 Jul 08:53:26 08:57:41 44° 97° (E) 09:01:43 437.365/2234.400
STRAND 1 01 Jul 08:53:38 08:56:45 15° 272° (W) 08:59:39 437.568
AUBIESAT-1 01 Jul 08:55:55 08:59:12 66° 253° (WSW) 09:02:35 437.475
AIST 2 01 Jul 09:08:37 09:11:41 20° 113° (ESE) 09:14:53 435.215
O/OREOS (USA 219) 01 Jul 09:09:37 09:14:05 75° 295° (WNW) 09:18:34 437.305
CUSAT 1 01 Jul 09:17:46 09:24:42 75° 280° (W) 09:30:00 437.405
HO-68 01 Jul 09:21:52 09:28:27 39° 97° (E) 09:35:05 435.675
CINEMA 3 01 Jul 09:27:26 09:30:04 17° 91° (E) 09:32:51 145.822/145.860
M-CUBED/EXP-1 PRIME 01 Jul 09:27:26 09:30:03 21° 260° (W) 09:32:42 437.505
CUTE-I 01 Jul 09:29:20 09:32:23 15° 301° (WNW) 09:35:12 437.470
SEEDS 01 Jul 09:31:55 09:35:41 31° 95° (E) 09:39:30 437.485
VERMONT LUNAR 01 Jul 09:37:45 09:39:53 17° 156° (SSE) 09:42:04 437.305
Oscar 11 01 Jul 09:41:17 09:43:03 12° 88° (E) 09:45:02 145.826/435.025
RS-15 01 Jul 09:43:59 09:53:43 31° 21° (NNE) 10:03:59 29.354- 29.394
BEESAT 3 01 Jul 09:45:14 09:49:05 39° 311° (NW) 09:52:59 437.485
DOVE 4 01 Jul 09:50:28 09:54:39 66° 101° (E) 09:58:46 437.250
BEESAT 2 01 Jul 09:52:01 09:55:56 42° 311° (NW) 09:59:54 435.950
AAUSAT CUBESAT 2 01 Jul 09:52:27 09:56:19 35° 96° (E) 10:00:12 437.432
DANDE 01 Jul 09:55:02 10:02:28 55° 283° (WNW) 10:08:15 436.750
FUNcube-1 01 Jul 10:02:09 10:03:26 11° 88° (E) 10:04:58 145.935
UWE-3 01 Jul 10:03:27 10:05:59 16° 90° (E) 10:08:43 435.000/436.395/437.385
ANTELSAT 01 Jul 10:06:56 10:10:23 25° 68° (ENE) 10:13:55 437.575/2403.000
CUTE 1.7 + AOD 2 01 Jul 10:12:56 10:17:14 76° 284° (WNW) 10:21:30 437.475
QB50P2 01 Jul 10:14:41 10:16:44 14° 63° (ENE) 10:18:58 145.880/145.840
COMPASS 1 01 Jul 10:15:03 10:19:17 74° 100° (E) 10:23:30 437.405
CANX-2 01 Jul 10:15:45 10:20:00 64° 286° (WNW) 10:24:14 2200.000
POPSAT HIP 1 01 Jul 10:16:21 10:18:26 14° 63° (ENE) 10:20:41 437.405
GONETS M04 01 Jul 10:18:56 10:27:45 87° 97° (E) 10:36:34
TIGRISAT 01 Jul 10:20:36 10:24:25 32° 69° (ENE) 10:28:15 435.000
GOMX 1 01 Jul 10:26:27 10:30:16 31° 291° (WNW) 10:33:56 467.674
ISS 01 Jul 10:28:35 10:31:48 72° 147° (SSE) 10:35:03 145.825
BRITE-PL 01 Jul 10:32:48 10:35:55 18° 296° (WNW) 10:38:48 437.365/2234.400
DELFI C3 01 Jul 10:33:50 10:37:28 31° 96° (E) 10:41:08 145.870
CUBEBUG 2 01 Jul 10:39:48 10:43:52 49° 99° (E) 10:48:00 437.445
PHONESAT 2.4 01 Jul 10:40:07 10:41:47 13° 151° (SSE) 10:43:32 2401.200-2431.200
AIST 2 01 Jul 10:45:52 10:49:59 46° 310° (NW) 10:54:09 435.215
DX 1 01 Jul 10:47:05 10:49:08 13° 89° (E) 10:51:24 434.975-435.025
O/OREOS (USA 219) 01 Jul 10:53:30 10:54:25 10° 316° (NW) 10:55:09 437.305
QB50P1 01 Jul 10:53:52 10:57:39 32° 70° (ENE) 11:01:29 145.935-145.965
UNISAT 6 01 Jul 10:58:09 11:02:28 85° 77° (ENE) 11:06:46 437.425
ZACube-1 01 Jul 10:58:18 11:02:22 48° 99° (E) 11:06:31 437.345
50 SAT 01 Jul 11:03:35 11:04:45 11° 88° (E) 11:06:07 437.505
CINEMA 3 01 Jul 11:03:37 11:07:33 42° 288° (WNW) 11:11:30 145.822/145.860
CUSAT 1 01 Jul 11:05:40 11:07:50 12° 296° (WNW) 11:09:31 437.405
SEEDS 01 Jul 11:07:52 11:11:23 25° 292° (WNW) 11:14:50 437.485
Cosmos 2499 01 Jul 11:08:33 11:14:50 37° 88° (E) 11:21:15 435.465 / 435.565
AISAT 01 Jul 11:09:14 11:11:18 13° 88° (E) 11:13:35 437.250
NANOSAT C BR1 01 Jul 11:09:15 11:13:18 46° 72° (ENE) 11:17:24 145.865
HO-68 01 Jul 11:09:34 11:16:16 44° 296° (WNW) 11:22:55 435.675
UKube-1 01 Jul 11:12:36 11:16:03 23° 94° (E) 11:19:31 .
VERMONT LUNAR 01 Jul 11:13:26 11:16:24 40° 172° (S) 11:19:24 437.305
Oscar 11 01 Jul 11:15:25 11:19:44 64° 286° (WNW) 11:24:02 145.826/435.025
DUCHIFAT 1 01 Jul 11:17:24 11:21:33 56° 73° (ENE) 11:25:42 145.980
POLYITAN 1 01 Jul 11:17:40 11:21:51 60° 74° (ENE) 11:26:02 437.675
ESTCUBE 1 01 Jul 11:27:44 11:30:03 14° 88° (E) 11:32:33 437.505/2401.250
AAUSAT CUBESAT 2 01 Jul 11:28:28 11:31:45 22° 293° (WNW) 11:34:57 437.432
DOVE 4 01 Jul 11:30:11 11:31:56 12° 298° (WNW) 11:33:29 437.250
FUNcube-1 01 Jul 11:36:07 11:40:16 65° 286° (WNW) 11:44:28 145.935
CUBEBUG 1 01 Jul 11:38:35 11:40:59 15° 89° (E) 11:43:33 437.445
UWE-3 01 Jul 11:38:48 11:42:49 46° 287° (WNW) 11:46:52 435.000/436.395/437.385
ANTELSAT 01 Jul 11:43:13 11:47:05 31° 264° (W) 11:50:54 437.575/2403.000
HUMSAT D 01 Jul 11:47:19 11:51:28 75° 102° (ESE) 11:55:39 437.325/437.525
QB50P2 01 Jul 11:47:57 11:52:11 63° 259° (W) 11:56:24 145.880/145.840
POPSAT HIP 1 01 Jul 11:49:38 11:53:52 62° 259° (W) 11:58:05 437.405
BUGSAT 1 01 Jul 11:50:37 11:54:52 88° 79° (ENE) 11:59:07 437.445
COMPASS 1 01 Jul 11:52:49 11:54:25 12° 298° (WNW) 11:55:50 437.405
RS-15 01 Jul 11:57:05 12:08:43 71° 50° (NE) 12:20:52 29.354- 29.394
TIGRISAT 01 Jul 11:57:44 12:01:15 23° 267° (W) 12:04:39 435.000
VELOX 1 01 Jul 11:58:10 12:02:22 42° 98° (E) 12:06:34 145.980
ISS 01 Jul 12:05:37 12:08:27 27° 345° (NNW) 12:11:18 145.825
DELFI C3 01 Jul 12:09:10 12:12:26 23° 292° (WNW) 12:15:36 145.870
PHONESAT 2.4 01 Jul 12:16:04 12:19:16 36° 167° (SSE) 12:22:30 2401.200-2431.200
CUBEBUG 2 01 Jul 12:17:37 12:20:15 16° 295° (WNW) 12:22:45 437.445
GONETS M04 01 Jul 12:19:20 12:25:58 22° 300° (WNW) 12:32:15
DX 1 01 Jul 12:21:33 12:25:52 60° 287° (WNW) 12:30:06 434.975-435.025
QB50P1 01 Jul 12:30:07 12:33:35 23° 267° (W) 12:36:58 145.935-145.965
ZACube-1 01 Jul 12:35:44 12:38:26 16° 295° (WNW) 12:41:00 437.345
50 SAT 01 Jul 12:35:58 12:39:48 57° 286° (WNW) 12:43:38 437.505
AISAT 01 Jul 12:44:00 12:48:22 61° 287° (WNW) 12:52:42 437.250
NANOSAT C BR1 01 Jul 12:46:40 12:49:26 16° 269° (W) 12:52:03 145.865
UKube-1 01 Jul 12:48:19 12:52:16 34° 291° (WNW) 12:56:09 .
VERMONT LUNAR 01 Jul 12:50:07 12:53:06 39° 188° (S) 12:56:06 437.305
SPROUT 01 Jul 12:53:36 12:57:14 27° 94° (E) 13:00:55 437.525
DUCHIFAT 1 01 Jul 12:55:31 12:57:46 14° 271° (W) 12:59:50 145.980
POLYITAN 1 01 Jul 12:56:08 12:58:13 13° 272° (W) 13:00:03 437.675
Cosmos 2499 01 Jul 13:01:21 13:07:57 40° 288° (WNW) 13:14:33 435.465 / 435.565
ESTCUBE 1 01 Jul 13:02:54 13:07:25 62° 286° (WNW) 13:11:53 437.505/2401.250
CUBEBUG 1 01 Jul 13:13:27 13:17:45 54° 287° (WNW) 13:21:59 437.445
Gurwin Techsat 1B 01 Jul 13:17:29 13:20:19 15° 59° (ENE) 13:23:23 435.225
HUMSAT D 01 Jul 13:25:20 13:26:42 11° 298° (WNW) 13:27:53 437.325/437.525
VELOX 1 01 Jul 13:35:21 13:38:40 21° 295° (WNW) 13:41:53 145.980
Oscar 19 01 Jul 13:38:01 13:43:07 68° 74° (ENE) 13:48:14 437.125/150
ITAMSAT 1 01 Jul 13:42:55 13:46:58 24° 64° (ENE) 13:51:08 435.822/435.867
ISS 01 Jul 13:43:01 13:45:34 21° 5° (N) 13:48:07 145.825
TISAT 1 01 Jul 13:49:09 13:53:22 73° 102° (ESE) 13:57:31 437.305
PHONESAT 2.4 01 Jul 13:53:40 13:57:01 47° 184° (S) 14:00:23 2401.200-2431.200
YUBILEINY 01 Jul 13:56:19 14:03:02 25° 62° (ENE) 14:10:02 435.215
RS-15 01 Jul 14:10:09 14:20:38 38° 252° (WSW) 14:31:08 29.354- 29.394
BEESAT 01 Jul 14:12:02 14:15:42 22° 92° (E) 14:19:28 436.000
AO-7 01 Jul 14:12:20 14:17:46 20° 49° (NE) 14:23:30 29.400- 29.500
Cosmos 2491 01 Jul 14:22:26 14:26:10 14° 75° (ENE) 14:30:30 435.465 / 435.565
SWISSCUBE 01 Jul 14:26:37 14:30:57 33° 96° (E) 14:35:17 437.505
VERMONT LUNAR 01 Jul 14:27:28 14:29:37 17° 204° (SSW) 14:31:44 437.305
SPROUT 01 Jul 14:29:36 14:33:18 28° 291° (WNW) 14:36:56 437.525
ITUPSAT 1 01 Jul 14:30:12 14:34:30 32° 95° (E) 14:38:50 437.325
HORYU 2 01 Jul 14:48:03 14:49:56 13° 61° (ENE) 14:51:59 437.375
JAS-2 01 Jul 14:53:29 14:57:39 26° 64° (ENE) 15:02:03 435.910
Gurwin Techsat 1B 01 Jul 14:54:21 14:59:40 84° 255° (WSW) 15:05:03 435.225
ISS 01 Jul 15:19:24 15:22:32 44° 25° (NNE) 15:25:39 145.825
Oscar 19 01 Jul 15:19:54 15:23:03 16° 272° (W) 15:25:59 437.125/150
ITAMSAT 1 01 Jul 15:21:08 15:26:11 49° 261° (W) 15:31:16 435.822/435.867
TISAT 1 01 Jul 15:26:59 15:28:36 12° 298° (WNW) 15:30:01 437.305
PHONESAT 2.4 01 Jul 15:31:45 15:34:42 26° 200° (SSW) 15:37:39 2401.200-2431.200
STARS 01 Jul 15:46:50 15:50:09 21° 93° (E) 15:53:33 437.465
BEESAT 01 Jul 15:49:12 15:53:46 43° 290° (WNW) 15:58:16 436.000
YUBILEINY 01 Jul 15:52:14 16:00:59 79° 265° (W) 16:09:45 435.215
AO-7 01 Jul 16:01:05 16:09:23 77° 69° (ENE) 16:17:47 29.400- 29.500
SWISSCUBE 01 Jul 16:04:33 16:08:45 29° 293° (WNW) 16:12:50 437.505
ITUPSAT 1 01 Jul 16:08:08 16:12:21 30° 293° (WNW) 16:16:30 437.325
PCSat 01 Jul 16:11:21 16:15:29 23° 108° (ESE) 16:19:45 145.827
Cosmos 2491 01 Jul 16:12:52 16:21:36 72° 95° (E) 16:30:24 435.465 / 435.565
HORYU 2 01 Jul 16:21:38 16:26:02 74° 258° (WSW) 16:30:28 437.375
KKS-1 01 Jul 16:21:47 16:26:15 81° 103° (ESE) 16:30:40 437.445
BEESAT 3 01 Jul 16:24:50 16:28:11 24° 43° (NE) 16:31:33 437.485
AIST 1 01 Jul 16:26:17 16:30:31 51° 94° (E) 16:34:50
BEESAT 2 01 Jul 16:32:09 16:35:28 23° 42° (NE) 16:38:48 435.950
Cosmos 2504 01 Jul 16:34:47 16:40:50 26° 66° (ENE) 16:47:25 435.465 / 435.565
JAS-2 01 Jul 16:37:47 16:42:39 40° 263° (W) 16:47:38 435.910
Gurwin Techsat 1B 01 Jul 16:39:19 16:40:37 11° 276° (W) 16:41:32 435.225
ISS 01 Jul 16:55:59 16:58:50 28° 222° (SW) 17:01:39 145.825
STARS 01 Jul 17:22:41 17:26:45 37° 290° (WNW) 17:30:46 437.465
SO-50 01 Jul 17:26:23 17:29:57 22° 112° (ESE) 17:33:43 436.795
AIST 2 01 Jul 17:28:11 17:31:37 24° 42° (NE) 17:35:03 435.215
CUTE-I 01 Jul 17:32:24 17:36:31 24° 63° (ENE) 17:40:46 437.470
O/OREOS (USA 219) 01 Jul 17:39:14 17:43:12 30° 57° (ENE) 17:47:13 437.305
MOZHAYETS 4 01 Jul 17:51:03 17:55:44 75° 101° (E) 18:00:23
YUBILEINY 01 Jul 17:51:34 17:56:32 16° 283° (WNW) 18:00:58 435.215
PCSat 01 Jul 17:53:15 17:58:33 55° 306° (NW) 18:03:55 145.827
AO-7 01 Jul 17:56:27 18:03:06 25° 269° (W) 18:09:29 29.400- 29.500
KKS-1 01 Jul 18:00:36 18:02:18 12° 299° (WNW) 18:03:47 437.445
BEESAT 3 01 Jul 18:02:28 18:06:17 39° 242° (WSW) 18:10:01 437.485
Cubesat XI-IV 01 Jul 18:04:26 18:09:28 43° 69° (ENE) 18:14:34 437.490
AIST 1 01 Jul 18:05:49 18:08:35 16° 293° (WNW) 18:11:12
BEESAT 2 01 Jul 18:09:50 18:13:43 42° 242° (WSW) 18:17:31 435.950
CUBESAT XI-V 01 Jul 18:11:15 18:12:05 11° 85° (E) 18:13:14 437.345
Cosmos 2491 01 Jul 18:12:03 18:19:26 27° 297° (WNW) 18:26:33 435.465 / 435.565
Cosmos 2504 01 Jul 18:27:21 18:34:54 68° 266° (W) 18:42:59 435.465 / 435.565
SO-50 01 Jul 19:05:31 19:10:11 52° 310° (NW) 19:14:59 436.795
AIST 2 01 Jul 19:06:22 19:10:23 44° 242° (WSW) 19:14:19 435.215
CUTE-I 01 Jul 19:11:04 19:16:17 52° 260° (W) 19:21:33 437.470
O/OREOS (USA 219) 01 Jul 19:18:38 19:22:37 30° 255° (WSW) 19:26:33 437.305
STRAND 1 01 Jul 19:21:51 19:25:37 21° 91° (E) 19:29:31 437.568
DOVE 4 01 Jul 19:23:43 19:24:28 10° 61° (ENE) 19:25:29 437.250
